Regional Weather Roundup
Issued by NWS

Home | Current Version | Previous Version | Graphics & Text | Print | Product List | Glossary On
Versions: 1 2 3 4 5 6 7 8 9 10 11 12 13 14 15 16 17 18 19 20 21 22 23 24 25 26 27 28 29 30 31 32 33 34 35 36 37 38 39 40 41 42 43 44 45 46 47 48 49 50
000
ASUS45 KCYS 051510
RWRWY

WYOMING REGIONAL WEATHER ROUNDUP
NATIONAL WEATHER SERVICE CHEYENNE WY
900 AM MDT SAT SEP 05 2015

NOTE:  "FAIR" INDICATES FEW OR NO CLOUDS BELOW 12,000 FEET
WITH NO SIGNIFICANT WEATHER AND/OR OBSTRUCTIONS TO VISIBILITY.

WYZ001-051600-
YELLOWSTONE NATIONAL PARK

CITY           SKY/WX    TMP DP  RH WIND       PRES   REMARKS
LK YELLOWSTONE   N/A     47  41  80 VRB3      30.05R
W YELLOWSTONE  NOT AVBL

$$
WYZ002>013-054>058-071-098>099-051600-
NORTHERN WYOMING

CITY           SKY/WX    TMP DP  RH WIND       PRES   REMARKS
JACKSON        CLOUDY    50  48  93 CALM      30.00R
CODY           FAIR      55  46  71 E3        29.92S
GREYBULL       FAIR      56  47  71 CALM      29.91S
WORLAND        FAIR      57  47  69 VRB3      29.92F
SHERIDAN       FAIR      56  49  77 CALM      29.89F
BUFFALO        FAIR      59  48  67 NE5       29.92F
GILLETTE       FAIR      60  51  72 W3        29.91S
HULETT         FAIR      66  55  68 CALM      29.91S
NEWCASTLE      CLOUDY    66  50  55 CALM      29.91R

$$
WYZ014>020-022>026-101>103-051600-
CENTRAL WYOMING

CITY           SKY/WX    TMP DP  RH WIND       PRES   REMARKS
BIG PINEY      FAIR      57  42  57 S14       30.04S
PINEDALE       CLOUDY    54  45  71 SE8       30.06F
DUBOIS         CLOUDY    55  37  50 CALM      29.99S
LANDER         FAIR      61  44  53 N9        29.89F
RIVERTON       FAIR      64  45  49 W6        29.91F
CASPER         FAIR      68  48  48 SW22      29.95S
DOUGLAS        FAIR      66  54  65 N3        29.96S

$$
WYZ021-027>030-104>119-051600-
SOUTHERN WYOMING

CITY           SKY/WX    TMP DP  RH WIND       PRES   REMARKS
EVANSTON       FAIR      63  36  36 SW26G37   30.02R
KEMMERER       FAIR      59  36  41 S10       30.05S
FORT BRIDGER   FAIR      65  35  32 SW13G22   30.06S
ROCK SPRINGS   FAIR      61  45  55 S25G35    30.04F
DIXON          FAIR      62  44  51 SW8G17    30.13F
RAWLINS        FAIR      64  41  42 SW29G43   30.07F
SARATOGA       FAIR      66  41  39 S14G22    30.13S
LARAMIE        FAIR      66  45  46 SW17G26   30.12R
CHEYENNE       PTSUNNY   71  46  40 W10       30.04R
TORRINGTON     FAIR      66  53  63 W5        29.91R
PINE BLUFFS    FAIR      70  46  43 SW3       29.99S

$$



USA.gov is the U.S. government's official web portal to all federal, state and local government web resources and services.